W7PJH-3 Weather Reports


Display with metric or nautical units.
time (UTC)temp
F
wind
direction
speed
MPH
gust
MPH
rain 1hr
in
rain 24hr
in
rain mn
in
humidity
%
barometer
mb
20260506040337 67 269 0.0 3.0 0.00 0.00 0.00 37 1011.8
20260506040010 67 269 0.0 3.0 0.00 0.00 0.00 37 1011.8
20260506030258 68 278 0.0 3.0 0.00 0.00 0.00 32 1010.6
20260506030010 68 278 0.0 3.0 0.00 0.00 0.00 32 1010.6
20260506020257 70 276 0.0 6.0 0.00 0.00 0.00 33 1009.3
20260506020009 70 276 0.0 6.0 0.00 0.00 0.00 33 1009.3
20260506010302 75 267 0.0 6.0 0.00 0.00 0.00 26 1008.0
20260506010009 75 267 0.0 6.0 0.00 0.00 0.00 26 1008.0
20260506000244 75 242 0.0 7.0 0.00 0.00 0.00 28 1007.5
20260506000009 75 242 0.0 7.0 0.00 0.00 0.00 28 1007.5
20260505230249 76 204 0.0 9.0 0.00 0.00 0.00 27 1007.5
20260505230009 76 204 0.0 9.0 0.00 0.00 0.00 27 1007.5
20260505220112 76 274 0.0 8.0 0.00 0.00 0.00 29 1008.0
20260505220010 76 274 0.0 8.0 0.00 0.00 0.00 29 1008.0
20260505210104 74 257 0.0 7.0 0.00 0.00 0.00 36 1008.6
20260505210009 74 257 0.0 7.0 0.00 0.00 0.00 36 1008.6
20260505200241 71 360 0.0 2.0 0.00 0.00 0.00 49 1009.8
20260505200009 71 360 0.0 2.0 0.00 0.00 0.00 49 1009.8
20260505190256 70 289 0.0 2.0 0.00 0.00 0.00 53 1010.7
20260505190009 70 289 0.0 2.0 0.00 0.00 0.00 53 1010.7
20260505180324 68 43 0.0 1.0 0.00 0.00 0.00 60 1011.7
20260505180009 68 43 0.0 1.0 0.00 0.00 0.00 60 1011.7
20260505170256 67 54 0.0 0.0 0.00 0.00 0.00 64 1011.9
20260505170009 67 54 0.0 0.0 0.00 0.00 0.00 64 1011.9
20260505160409 63 269 0.0 1.0 0.00 0.00 0.00 74 1012.6
20260505150257 61 0.0 0.0 0.00 0.00 0.00 87 1012.7
20260505140323 60 38 0.0 1.0 0.00 0.00 0.00 92 1012.6
20260505120327 58 26 0.0 1.0 0.00 0.00 0.00 94 1011.8
20260505120010 58 26 0.0 1.0 0.00 0.00 0.00 94 1011.8
20260505110327 58 330 0.0 0.0 0.00 0.00 0.00 93 1012.7
20260505100252 58 24 0.0 1.0 0.00 0.00 0.00 93 1013.5
20260505100010 58 24 0.0 1.0 0.00 0.00 0.00 93 1013.5
20260505090346 58 84 0.0 3.0 0.03 0.00 0.00 93 1014.5
20260505090009 58 84 0.0 3.0 0.03 0.00 0.00 93 1014.5
20260505080408 59 90 0.0 0.0 0.00 0.00 0.00 92 1015.9
20260505080012 59 90 0.0 0.0 0.00 0.00 0.00 92 1015.9
20260505070312 59 93 0.0 1.0 0.00 0.00 0.00 92 1015.7
20260505070012 59 93 0.0 1.0 0.00 0.00 0.00 92 1015.7
20260505060327 60 37 0.0 2.0 0.00 0.00 0.00 86 1015.4
20260505060009 60 37 0.0 2.0 0.00 0.00 0.00 86 1015.4
20260505050255 60 71 0.0 0.0 0.00 0.00 0.00 85 1015.3